sat.trackr.live / text

‹ back to catalog

NAVSTAR 49 (USA 154)

NORAD 26605 · 2000-071A

PAYLOAD ACTIVE UNKNOWN

§ Identity

Operator
Country
US
Launch date
2000-11-10
Launch site
AFETR
Launch vehicle
Mass (kg)
RCS (m²)
2.60

External: N2YO · Heavens-Above · Gunter

§ Orbital elements

Epoch: 2026-05-25T03:59:27.513024Z

Period
717.97 min
Inclination
55.6137°
Eccentricity
0.0174381
Mean motion
2.00566589 rev/d
Perigee alt
19,718.8 km
Apogee alt
20,645.1 km
Semi-major
26,560.1 km
B*
0.0000e+0
RAAN
95.8632°
Arg perigee
266.5986°
Mean anomaly
239.4730°
Rev number
18,705

§ Raw data

NAVSTAR 49 (USA 154)1 26605U 00071A   26145.16629066  .00000005  00000+0  00000+0 0  99942 26605  55.6137  95.8632 0174381 266.5986 239.4730  2.00566589187057

JSON: /api/v1/satellites/26605 · /tle

For live sub-satellite position, see the globe view (requires WebGL).

§ Visibility from observer

Set your observer location to see the next 7 days of passes ≥ 10°. The values pass through the URL so the page stays shareable.

No JS? Fill the form by hand. The geolocation button needs JavaScript.